Wind_Speed
50 44 44 51 48 46 43 40 39 41 47 40 36 29 38 42 50 51 49 53 51 46 45 42 41 39 42 42 41 42 49 59 60 59 59 59 60 60 59 59 60 64 64 64
53 49 52 52 53 51 49 46 42 41 44 41 38 30 33 40 45 55 56 53 54 52 49 47 42 40 39 43 46 45 43 45 51 56 59 60 60 60 64 64 64 62 62 63
46 47 58 56 57 60 58 57 50 42 44 38 35 26 36 44 48 49 55 54 54 54 54 54 53 48 45 45 46 49 46 45 42 45 48 50 54 57 59 59 58 58 59 60
59 66 64 60 56 63 54 66 62 58 51 45 47 27 37 43 48 49 49 52 56 58 57 57 60 60 58 57 53 53 54 52 50 51 51 52 55 55 57 57 58 59 59 60
65 62 64 60 70 68 54 66 66 64 65 62 49 60 38 39 47 50 52 57 58 63 67 64 60 60 65 66 62 61 59 59 60 59 57 58 61 60 60 58 58 59 61 63
68 72 59 71 70 73 77 80 83 79 71 51 64 71 30 49 48 53 52 55 61 61 67 72 73 70 70 69 62 60 64 65 66 65 63 63 63 64 64 63 63 65 66 67
74 78 79 73 78 80 81 85 86 87 90 78 72 63 46 56 61 60 61 62 69 74 65 68 76 80 78 74 70 69 64 70 71 72 72 69 66 66 66 65 67 69 69 69
83 80 87 87 86 87 85 92 94 100 94 90 89 80 71 72 64 67 73 79 85 86 85 82 75 76 83 83 74 70 74 76 70 71 73 74 73 71 71 71 74 74 75 75
98 92 90 97 93 94 96 99 100 112 109 106 96 95 89 83 80 79 77 85 91 91 96 91 87 88 82 86 89 86 89 93 89 88 81 76 76 73 73 76 78 77 79 85
114 106 97 99 103 101 110 108 109 111 116 113 111 107 98 90 90 98 103 90 95 99 102 108 111 103 104 95 100 98 96 94 95 89 94 89 86 81 81 78 80 88 90 91
116 120 109 112 107 110 114 113 115 119 120 124 125 125 104 98 97 101 105 103 112 112 110 112 111 110 110 109 106 106 110 99 92 99 102 99 91 89 91 90 93 96 98 98
118 129 128 124 120 119 123 121 115 126 129 136 139 141 120 115 110 105 110 122 125 117 124 122 125 117 116 117 118 113 112 108 107 103 101 107 104 101 100 102 101 99 106 104
133 132 139 141 130 131 134 131 134 133 137 140 142 141 129 122 124 125 127 131 133 142 144 142 127 113 110 116 118 103 106 112 113 113 104 103 107 107 108 107 107 109 107 109
141 143 150 151 144 138 136 143 140 142 147 145 147 143 140 134 131 124 130 142 149 136 122 113 108 110 99 97 94 94 109 118 121 118 106 104 108 111 111 114 115 114 114 112
148 153 146 152 159 150 152 152 149 147 152 150 149 147 151 148 155 147 130 116 108 113 112 116 112 116 117 96 95 94 94 98 108 110 108 110 114 113 115 113 114 114 117 116
169 169 161 158 152 162 163 159 150 152 153 157 155 160 162 132 125 115 115 115 110 111 116 116 116 113 102 102 105 109 101 104 101 106 113 106 108 111 107 109 115 116 113 120
131 130 134 134 135 144 137 129 141 138 136 134 127 121 123 125 117 111 104 99 94 91 97 102 111 117 120 120 119 119 113 114 113 110 110 104 100 98 98 99 101 109 118 114
119 120 126 126 127 132 114 108 113 118 124 124 126 124 121 121 121 118 112 110 106 106 96 92 96 107 112 114 123 127 126 119 119 117 114 112 114 111 108 104 108 103 112 111
127 128 127 127 123 123 112 112 115 117 121 123 120 119 116 113 112 111 110 104 99 100 100 95 97 99 103 110 111 112 117 128 126 122 121 124 123 120 122 121 117 117 120 126
130 131 132 126 125 122 115 116 119 120 121 118 117 115 113 112 111 110 116 108 105 105 105 98 96 94 97 101 105 103 111 116 117 113 118 127 134 135 130 130 130 127 128 124
117 121 125 127 131 125 119 117 117 122 118 118 118 117 115 112 111 106 113 116 111 109 110 106 101 103 98 96 99 100 104 111 113 114 111 109 111 115 116 119 119 120 119 116
111 114 116 121 124 121 121 121 119 117 111 111 115 115 111 109 107 106 103 104 105 107 108 109 105 105 100 97 98 96 99 104 106 112 110 111 109 108 109 112 115 114 112 111
109 111 111 112 111 112 115 119 114 116 111 110 108 107 107 105 104 102 100 98 100 103 103 107 102 99 99 94 99 100 103 102 103 106 106 106 106 107 108 109 110 107 108 108
104 106 107 107 103 106 108 108 111 111 105 103 103 102 102 100 98 96 96 94 95 97 100 100 101 96 94 95 97 101 100 105 104 103 106 104 102 105 105 108 111 109 107 106
93 101 108 103 99 109 103 102 103 103 102 99 98 98 98 98 96 98 94 94 94 94 96 97 96 95 94 95 95 100 101 105 105 98 102 102 101 103 103 105 106 106 106 106
94 98 104 102 97 104 94 95 101 97 94 91 90 91 91 89 87 91 89 92 94 94 93 93 93 92 90 91 92 98 100 102 103 99 97 98 99 99 100 101 103 103 105 103
Wind_Direction
285 285 278 275 286 284 290 293 290 278 279 289 293 288 281 281 283 284 282 288 291 292 288 282 279 276 273 272 270 268 262 261 261 261 262 263 264 266 265 264 264 264 265 267
285 287 278 284 283 283 285 285 286 280 280 284 279 284 282 281 278 283 289 288 290 288 286 285 280 277 274 274 274 272 269 266 266 266 264 263 263 264 266 268 269 269 269 269
289 290 280 276 279 280 283 284 278 278 276 283 278 276 278 282 281 282 286 291 291 290 290 289 287 281 277 275 274 275 273 271 269 269 270 270 269 268 268 269 271 272 271 271
289 287 285 277 277 277 282 281 282 278 281 275 287 274 278 279 278 282 285 284 288 292 292 288 286 281 277 276 275 272 273 272 270 270 271 272 272 272 273 274 273 272 272 272
286 292 283 292 283 281 281 281 282 283 285 276 278 283 272 270 275 279 280 284 283 288 288 287 285 285 284 280 278 274 270 270 272 272 271 272 272 272 272 271 272 272 273 273
277 287 282 277 286 285 278 277 280 286 290 291 281 276 272 276 267 268 274 284 291 289 293 291 285 281 281 281 277 273 269 267 269 269 268 269 270 270 270 269 270 270 271 272
280 286 292 283 283 289 280 280 284 288 288 289 289 282 290 281 275 285 279 280 285 281 282 284 288 286 282 277 275 274 271 270 268 269 272 272 271 270 271 271 272 271 271 273
287 284 285 289 279 281 284 286 290 287 290 291 285 300 302 289 283 282 287 289 292 290 283 275 283 279 280 278 275 274 280 281 273 267 269 271 269 269 269 268 270 269 268 270
282 285 286 283 280 277 285 289 284 293 295 290 288 292 292 293 280 284 281 281 284 281 288 285 272 280 280 273 274 274 275 280 276 273 276 269 269 269 272 274 271 271 273 273
283 282 280 283 282 284 281 280 284 286 287 286 286 284 290 287 279 287 290 281 275 279 279 283 283 279 280 273 268 266 270 271 273 273 277 274 272 270 274 270 271 274 274 274
278 278 280 283 289 280 284 286 283 281 283 285 286 286 285 286 285 281 284 285 281 278 273 274 277 275 274 275 277 268 269 268 268 273 272 270 273 268 270 269 272 272 272 274
277 283 283 289 288 287 284 284 281 278 283 284 287 291 293 288 285 280 281 283 278 278 276 272 276 271 269 273 277 274 276 275 269 274 268 269 272 271 269 269 273 273 273 274
286 281 284 286 286 288 283 283 284 282 282 282 285 288 288 282 284 288 287 283 280 281 279 283 279 277 272 271 276 274 269 264 266 270 266 266 267 268 268 269 269 273 272 274
279 279 283 283 283 282 277 280 280 279 282 286 283 286 283 281 281 276 277 279 284 283 282 279 278 281 279 274 273 269 261 259 263 265 263 264 264 265 266 267 265 269 268 270
274 277 275 277 280 279 278 279 279 278 280 278 280 279 281 280 278 279 279 276 272 271 274 275 276 273 276 276 275 272 265 261 258 258 261 262 260 261 265 268 267 265 266 267
275 274 274 272 270 274 275 278 281 279 277 278 277 278 280 279 278 276 272 270 268 266 265 268 270 272 266 268 270 271 268 266 266 260 263 264 263 262 262 262 263 263 265 266
273 274 275 274 273 272 275 279 273 274 275 277 275 274 277 278 278 276 275 272 272 266 265 265 263 262 264 267 267 268 266 267 269 270 271 270 271 265 267 262 264 264 263 269
276 274 273 273 271 272 276 275 275 275 277 276 277 277 277 278 280 278 274 274 273 270 267 264 264 262 260 262 258 261 265 266 267 271 271 273 274 274 273 271 275 274 275 278
277 277 278 279 278 278 278 278 277 277 277 277 277 278 278 278 279 279 278 276 274 273 270 265 263 259 259 259 260 259 259 260 261 265 268 268 270 270 271 272 273 271 274 277
275 276 277 279 278 279 280 279 278 278 277 278 276 275 276 277 277 278 278 276 275 275 274 271 269 264 258 256 257 259 259 260 261 262 264 265 265 266 267 267 270 271 273 275
274 275 276 277 277 278 280 277 276 275 276 276 276 276 276 274 273 272 273 277 277 276 275 274 270 268 264 260 258 256 255 256 259 260 259 261 261 262 264 265 267 269 270 270
274 274 274 276 278 280 280 279 278 275 275 275 274 276 276 276 275 275 274 272 272 272 272 270 269 268 265 263 259 256 255 256 257 258 259 260 262 262 262 262 263 265 266 269
276 276 275 276 276 277 276 277 277 277 277 277 278 279 278 278 277 277 275 275 274 272 270 270 268 267 267 261 261 259 258 257 257 257 258 259 259 261 262 263 263 263 264 266
278 279 278 278 276 276 274 275 276 278 280 280 279 278 279 279 279 277 275 274 272 271 271 270 270 268 264 262 260 259 258 258 256 253 254 255 255 256 256 257 260 262 263 265
279 276 275 277 276 274 275 277 278 277 277 277 277 277 276 276 276 276 276 275 273 271 270 270 268 267 266 263 261 260 260 259 259 256 256 256 254 255 255 255 257 259 261 262
276 276 276 275 275 275 278 276 276 279 279 278 277 276 275 273 272 271 270 270 269 269 268 268 269 269 268 267 264 261 260 259 261 260 259 258 258 258 258 256 256 257 258 259
Height
10741 10744 10741 10729 10734 10736 10737 10738 10738 10735 10729 10738 10739 10742 10736 10729 10719 10716 10716 10716 10716 10721 10720 10719 10718 10718 10716 10715 10715 10714 10712 10710 10711 10711 10712 10713 10712 10712 10711 10710 10710 10709 10709 10709
10729 10735 10724 10723 10720 10721 10722 10723 10725 10726 10721 10724 10731 10736 10730 10721 10717 10707 10707 10709 10709 10708 10709 10708 10707 10706 10706 10704 10702 10702 10702 10700 10698 10697 10698 10698 10698 10699 10696 10696 10695 10695 10694 10693
10718 10721 10711 10709 10708 10703 10705 10703 10707 10713 10709 10713 10718 10729 10723 10712 10706 10707 10703 10698 10695 10697 10697 10697 10697 10695 10694 10694 10694 10690 10690 10690 10690 10686 10685 10685 10684 10684 10683 10681 10681 10680 10678 10677
10712 10699 10697 10697 10697 10680 10697 10679 10691 10694 10697 10705 10704 10719 10717 10704 10698 10696 10695 10690 10684 10681 10683 10683 10682 10682 10681 10681 10683 10682 10678 10677 10677 10674 10674 10672 10671 10670 10668 10669 10668 10666 10664 10664
10695 10687 10683 10682 10677 10670 10680 10670 10669 10674 10679 10689 10692 10691 10708 10701 10693 10688 10682 10678 10680 10673 10669 10666 10667 10666 10665 10665 10665 10666 10665 10664 10662 10660 10659 10657 10656 10655 10655 10654 10653 10652 10650 10648
10676 10670 10671 10664 10660 10653 10650 10652 10650 10653 10657 10673 10671 10666 10709 10686 10685 10681 10675 10667 10663 10663 10653 10648 10648 10648 10648 10647 10645 10646 10646 10647 10646 10645 10644 10643 10642 10641 10640 10637 10636 10634 10633 10631
10654 10653 10648 10640 10638 10633 10628 10630 10630 10629 10631 10648 10645 10649 10686 10669 10663 10663 10662 10660 10655 10648 10644 10639 10628 10623 10624 10626 10627 10626 10626 10627 10628 10628 10625 10627 10627 10626 10624 10622 10621 10618 10616 10613
10627 10636 10626 10624 10614 10615 10611 10605 10602 10586 10606 10618 10615 10631 10656 10647 10646 10639 10638 10635 10628 10626 10626 10618 10614 10615 10606 10603 10603 10602 10602 10606 10608 10609 10608 10609 10608 10607 10605 10604 10602 10600 10597 10594
10589 10611 10603 10601 10596 10593 10593 10590 10574 10560 10564 10567 10601 10608 10622 10628 10621 10619 10616 10612 10605 10595 10595 10595 10594 10593 10592 10586 10583 10581 10580 10577 10580 10587 10591 10589 10589 10586 10584 10583 10582 10580 10576 10573
10558 10562 10583 10576 10576 10582 10561 10562 10557 10547 10528 10529 10543 10568 10590 10605 10598 10590 10587 10580 10572 10567 10565 10561 10562 10568 10567 10564 10561 10561 10559 10560 10559 10562 10565 10567 10567 10564 10562 10561 10559 10557 10553 10551
10530 10527 10557 10546 10556 10551 10541 10534 10532 10514 10508 10496 10492 10503 10564 10566 10569 10562 10556 10551 10539 10531 10531 10527 10532 10533 10535 10534 10530 10525 10528 10543 10548 10542 10541 10543 10541 10542 10536 10534 10532 10529 10525 10522
10501 10486 10483 10519 10523 10518 10510 10507 10503 10480 10484 10467 10454 10449 10516 10520 10519 10525 10527 10513 10497 10491 10483 10491 10492 10492 10496 10499 10501 10507 10513 10518 10521 10517 10517 10514 10514 10514 10511 10506 10503 10500 10498 10495
10472 10460 10451 10463 10488 10491 10470 10474 10468 10456 10441 10438 10436 10438 10464 10474 10478 10475 10463 10450 10450 10453 10451 10443 10451 10470 10478 10480 10479 10486 10486 10489 10485 10485 10483 10487 10489 10486 10481 10478 10474 10471 10469 10465
10434 10435 10434 10427 10429 10453 10445 10439 10440 10421 10404 10415 10397 10403 10415 10433 10439 10453 10417 10400 10406 10417 10420 10411 10412 10420 10431 10437 10437 10443 10449 10452 10450 10447 10449 10452 10454 10450 10448 10444 10443 10438 10434 10435
10407 10404 10398 10400 10405 10399 10395 10401 10404 10397 10389 10369 10375 10371 10373 10379 10381 10390 10395 10388 10386 10384 10380 10379 10384 10389 10390 10395 10398 10400 10405 10407 10407 10410 10415 10421 10416 10418 10417 10414 10408 10404 10403 10404
10370 10367 10365 10363 10380 10359 10351 10361 10375 10357 10345 10337 10335 10330 10321 10330 10335 10339 10346 10350 10359 10355 10353 10354 10356 10356 10362 10360 10362 10363 10368 10368 10371 10375 10380 10378 10379 10382 10383 10380 10374 10371 10370 10371
10331 10324 10317 10318 10338 10313 10316 10353 10321 10314 10308 10308 10300 10294 10292 10286 10297 10294 10302 10308 10321 10329 10328 10324 10322 10325 10325 10328 10328 10327 10330 10331 10332 10335 10338 10343 10344 10347 10349 10343 10346 10344 10342 10338
10294 10285 10278 10282 10293 10276 10311 10299 10287 10282 10277 10271 10260 10259 10260 10259 10255 10255 10262 10267 10271 10281 10297 10298 10295 10291 10290 10289 10295 10302 10294 10295 10297 10298 10301 10304 10309 10312 10312 10311 10316 10313 10311 10309
10250 10245 10241 10239 10247 10240 10263 10262 10257 10248 10235 10229 10229 10228 10226 10228 10228 10225 10221 10227 10231 10232 10239 10255 10258 10261 10262 10256 10258 10263 10262 10259 10264 10266 10268 10272 10277 10282 10283 10283 10284 10284 10283 10280
10226 10215 10198 10204 10197 10199 10222 10222 10216 10206 10195 10198 10194 10195 10197 10198 10197 10203 10179 10188 10195 10196 10198 10204 10212 10220 10226 10225 10226 10231 10228 10226 10228 10233 10237 10238 10243 10246 10250 10250 10249 10251 10251 10251
10198 10181 10169 10163 10152 10167 10179 10181 10177 10161 10164 10161 10156 10157 10158 10162 10162 10177 10163 10151 10154 10158 10159 10161 10170 10173 10180 10185 10189 10194 10194 10190 10192 10195 10202 10204 10206 10210 10213 10215 10217 10217 10216 10217
10164 10157 10150 10136 10126 10132 10127 10123 10124 10124 10128 10129 10119 10117 10119 10123 10126 10125 10132 10128 10126 10123 10120 10122 10129 10132 10138 10144 10148 10154 10154 10153 10158 10157 10164 10170 10174 10176 10180 10181 10182 10184 10186 10188
10123 10117 10117 10111 10111 10104 10093 10078 10087 10076 10087 10089 10088 10089 10082 10085 10084 10085 10088 10091 10089 10084 10084 10080 10087 10095 10096 10100 10101 10111 10110 10114 10120 10123 10128 10134 10138 10143 10144 10146 10148 10155 10156 10155
10091 10082 10076 10070 10080 10067 10060 10059 10049 10048 10057 10059 10055 10054 10048 10047 10048 10049 10049 10052 10050 10049 10045 10045 10045 10051 10059 10055 10061 10064 10070 10071 10078 10087 10090 10098 10104 10109 10115 10117 10117 10121 10124 10125
10075 10051 10031 10038 10047 10018 10034 10033 10029 10025 10024 10027 10024 10021 10017 10014 10015 10009 10016 10014 10013 10014 10011 10009 10011 10014 10019 10018 10025 10022 10026 10029 10036 10048 10053 10061 10070 10073 10080 10085 10089 10090 10091 10092
10029 10018 10001 10003 10013 9991 10013 10007 9990 9994 9996 9995 9993 9988 9984 9984 9988 9979 9983 9978 9975 9977 9978 9979 9980 9981 9985 9987 9990 9985 9987 9992 10000 10011 10019 10025 10031 10040 10046 10051 10054 10058 10060 10061